Regional Weather Roundup
Issued by NWS

Home | Current Version | Previous Version | Graphics & Text | Print | Product List | Glossary On
Versions: 1 2 3 4 5 6 7 8 9 10 11 12 13 14 15 16 17 18 19 20 21 22 23 24 25 26 27 28 29 30 31 32 33 34 35 36 37 38 39 40 41 42 43 44 45 46 47 48 49 50
000
ASUS45 KBOI 190910
RWRID

IDAHO REGIONAL WEATHER ROUNDUP
NATIONAL WEATHER SERVICE BOISE ID
300 AM MDT THU APR 19 2018

NOTE: "FAIR" INDICATES FEW OR NO CLOUDS BELOW 12000 FEET
WITH NO SIGNIFICANT WEATHER AND/OR OBSTRUCTIONS TO VISIBILITY

IDZ012-014-191000-
SOUTHWEST IDAHO


CITY           SKY/WX    TMP DP  RH WIND       PRES   REMARKS
BOISE          MOCLDY    46  29  51 NW5       29.93S
CALDWELL       MOCLDY    45  35  68 W9        29.95S
MOUNTAIN HOME  CLOUDY    46  25  43 SW5       29.91S
$$

IDZ016-017-191000-
SOUTHCENTRAL IDAHO


CITY           SKY/WX    TMP DP  RH WIND       PRES   REMARKS
BURLEY         CLOUDY    44  24  45 E12G17    29.91F
JEROME         CLOUDY    46  22  38 NE21      29.91F
TWIN FALLS     CLOUDY    42  26  53 E7        29.91F
$$

IDZ019>023-191000-
SOUTHEAST IDAHO


CITY           SKY/WX    TMP DP  RH WIND       PRES   REMARKS
IDAHO FALLS    CLOUDY    35  27  72 N9        29.99F WCI  28
POCATELLO      CLOUDY    37  27  67 N3        29.96F
REXBURG        MOCLDY    35  26  69 NE8       29.99F WCI  29
$$

IDZ006-010-011-018-031-032-191000-
CENTRAL IDAHO MOUNTAINS


CITY           SKY/WX    TMP DP  RH WIND       PRES   REMARKS
MCCALL         MOCLDY    34  23  64 NW7       29.98S WCI  28
HAILEY         CLOUDY    41  23  48 N5        30.00S
STANLEY          N/A     28  20  71 CALM      30.00F
SALMON         PTCLDY    37  26  64 CALM      30.04S
CHALLIS        NOT AVBL
$$

IDZ002-004-006-007-026-191000-
NORTHERN IDAHO


CITY           SKY/WX    TMP DP  RH WIND       PRES   REMARKS
LEWISTON       MOCLDY    46  35  65 S5        30.06S
LOWELL           N/A     42  39  89 CALM      30.09R
COEUR D`ALENE  PTCLDY    35  29  78 NE8       30.12S WCI  29
MULLAN PASS    PTCLDY    31  19  61 SE7       30.06F WCI  24
$$



USA.gov is the U.S. government's official web portal to all federal, state and local government web resources and services.